ANALYST OBJECT, 81052

Orbit data source: Space-Track

You're viewing an Uncataloged Satellite

Recently launched and/or uncataloged satellites may have evolving metadata. Metadata may include but not limited to: Owner, Maufacturer, Bus, Motor, and Mission.

Analyst objects are objects on Earth’s orbit with insufficient fidelity to be published in the public satellite catalog. This can be due to infrequent tracking, cross-tagging (observation association with closely-spaced objects), or inability to associate the object with a known launch.

Loading next visibility...
Identifier
81052
Orbit
LEO
Country
Unknown
Related business
None
Manufacturer
Unknown
Mission
Spacecraft
Bus & Motor
Unknown
Mass
Unknown
Launch date (UTC)
Unknown
Launch vehicle
Unknown
Launch site
Unknown
Object type
Unknown
Shape & HBR
Unknown shape, 0.1 m
Radar Cross Section
RCS unknown

Expand to show TLE details & history
Last TLE update: 3 days ago

TLE from 3 days ago
1 81052U          25344.41346910 +.00011222 +00000+0 +29502-2 0  9999
2 81052  65.7725  35.2914 0566283 308.8038  46.3730 13.82712090599991
Epoch: 2025-12-10T09:55Z
TLE epoch observation values (Epoch: 2025-12-10T09:55:23.730Z)
Latitude
-0.00001°
Longitude
167.05837°
Altitude
682.842 km
Speed
7.654 km/s
True Right ascension
02h 21m 09s
True Declination
0° 00' 00"
Sunlit
Object was in full shadow at epoch
Visualization orbit readout
Latitude
Unknown
Longitude
Unknown
Altitude
Unknown
Speed
Unknown
Apparent Right ascension
Unknown
Apparent Declination
Unknown
Sunlit
N/A
Visualization observer readout
Local Sidereal Time
05:23:34
Azimuth
Unknown
Elevation
Unknown
Doppler factor
Unknown
Orbital elements
Apogee altitude
1,367.933 km
Perigee altitude
537.656 km
Semi-major axis
7,330.932 km
Eccentricity
0.05663
Inclination
65.7725°
RAAN
35.2914°
Arg. of periapsis
308.8038°
True anomaly
51.30466°
Mean anomaly
46.373°
Eccentric anomaly
48.81481°
Mean motion
3.45784 °/min
Orbital period
104.11 mins
BSTAR
0.0029502
Loading maneuver chart data...
Computing Atmospheric mass density...
Loading historical data...
Loading historical data...
Loading historical data...
Loading historical data...
Loading historical data...
Loading historical data...
Loading historical data...
Other satellites on launch

Documentation

Showing up to 5 results
|